Regional Weather Roundup
Issued by NWS Burlington, VT

Current Version | Previous Version | Graphics & Text | Print | Product List | Glossary Off
Versions: 1 2 3 4 5 6 7 8 9 10 11 12 13 14 15 16 17 18 19 20 21 22 23 24 25 26 27 28 29 30 31 32 33 34 35 36 37 38 39 40 41 42 43 44 45 46 47 48 49 50

000
ASUS41 KBTV 011310
RWRBTV
VERMONT REGIONAL WEATHER ROUNDUP
NATIONAL WEATHER SERVICE BURLINGTON VT
900 AM EDT WED APR 01 2015

NOTE: "FAIR" INDICATES FEW OR NO CLOUDS BELOW 12,000 FEET WITH NO
SIGNIFICANT WEATHER AND/OR OBSTRUCTIONS TO VISIBILITY.

* THESE REPORTS ARE NOT UNDER NWS QUALITY CONTROL AND/OR DO NOT
  REPORT WEATHER SUCH AS PRECIPITATION AND FOG.

VTZ001>019-011400-
_____VERMONT_____


CITY           SKY/WX    TMP DP  RH WIND       PRES   REMARKS
BURLINGTON     MOSUNNY   28   8  43 N7        30.07R
MONTPELIER     SUNNY     21  10  62 CALM      30.02R
MORRISVILLE    SUNNY     24  12  60 CALM      30.03R
ST. JOHNSBURY*   N/A     22   9  57 MISG      30.00R
LYNDONVILLE*     N/A     22   0  38 NW8       29.98S
MIDDLEBURY*      N/A     27  13  56 N10       30.03R WCI  17
RUTLAND*       SUNNY     27  10  50 N6        30.00R
SPRINGFIELD    SUNNY     30   6  36 E3        29.99R
HIGHGATE*        N/A     25  12  56 NW5       30.08R
NEWPORT*         N/A     18   6  57 CALM      30.01R
BENNINGTON     SUNNY     31  11  43 N3        29.99R
SUTTON*          N/A     21 N/A N/A MISG        N/A

_____LAKE CHAMPLAIN_____


CITY           SKY/WX    TMP DP  RH WIND       PRES   REMARKS

$$

NYZ007-026>031-035-052-083-011400-
_____NORTHERN NEW YORK_____


CITY           SKY/WX    TMP DP  RH WIND       PRES   REMARKS
PLATTSBURGH    SUNNY     27   6  41 N14       30.08R WCI  16
SARANAC LAKE   SUNNY     19   6  57 NE3       29.96R
MASSENA        SUNNY     27   4  37 N6        30.12R
OGDENSBURG*    SUNNY     28   9  43 NE10      30.11R WCI  19
POTSDAM*       SUNNY     25  10  54 NE5       30.09S
WATERTOWN      SUNNY     29  13  51 N7        30.10R
FT DRUM        SUNNY     25   6  44 NE8       30.07R
ALBANY         MOSUNNY   33  12  41 N3        30.04R
GLENS FALLS    SUNNY     30  11  45 NE8       30.04R

$$
NHZ002-005-011-011400-
_____NEW HAMPSHIRE_____


CITY           SKY/WX    TMP DP  RH WIND       PRES   REMARKS
LEBANON        SUNNY     30  11  45 NW3       29.99R
KEENE          SUNNY     30  10  43 N8        29.98S
MT WASHINGTON  MOSUNNY    0  -8  71 NW51G62     N/A  WCI -32
PLYMOUTH         N/A     29  13  49 W10G16    29.97R
WHITEFIELD     SUNNY     22  10  60 CALM      29.97R

$$

_____REGIONAL QUEBEC LOCATIONS_____


CITY           SKY/WX    TMP DP  RH WIND       PRES   REMARKS
MONTREAL       PTSUNNY   25   1  36 N9        30.11R
QUEBEC CITY    MOSUNNY   16   0  48 NW6       30.04R
SHERBROOKE     SUNNY     19   3  49 NW7       30.01R

_____REGIONAL ONTARIO LOCATIONS_____


CITY           SKY/WX    TMP DP  RH WIND       PRES   REMARKS
OTTAWA         PTSUNNY   25   3  39 N7        30.11R

______KEY______
VSB  - VISIBILITY IN MILES
WCI  - WIND CHILL INDEX
HX   - HEAT INDEX
$$



USA.gov is the U.S. government's official web portal to all federal, state and local government web resources and services.